Location: Castellar de la Frontera
(36.3200°N, 5.4500°W)
Time: 09:49:42
(UTC+02:00)

ISS - Visible Passes

Search period start: 25 April 2019 00:00
Search period end: 05 May 2019 00:00
Orbit: 408 x 410 km, 51.6° (Epoch: 25 April)

Date Brightness Start Highest point End Pass type
(mag) Time Alt. Az. Time Alt. Az. Time Alt. Az.
26 Apr -2.2 07:02:32 10° SSW 07:05:28 30° SE 07:08:25 10° ENE visible
27 Apr -1.2 06:12:45 10° SSE 06:14:48 16° SE 06:16:52 10° E visible
28 Apr -3.8 06:56:57 10° SW 07:00:14 85° NW 07:03:33 10° NE visible
29 Apr -3.0 06:08:09 28° S 06:09:26 44° SE 06:12:37 10° ENE visible
30 Apr -1.6 05:19:25 20° ESE 05:19:25 20° ESE 05:21:20 10° ENE visible
30 Apr -2.6 06:52:09 10° W 06:55:09 31° NW 06:58:09 10° NNE visible
01 May -3.6 06:03:19 41° W 06:04:12 59° NW 06:07:29 10° NE visible
02 May -2.4 05:14:25 38° ENE 05:14:25 38° ENE 05:16:37 10° NE visible
02 May -1.5 06:48:04 10° WNW 06:50:12 16° NNW 06:52:20 10° NNE visible
03 May -0.4 04:25:26 10° ENE 04:25:26 10° ENE 04:25:30 10° ENE visible
03 May -2.2 05:58:10 21° WNW 05:59:06 24° NNW 06:01:52 10° NNE visible
04 May -2.1 05:09:07 31° N 05:09:07 31° N 05:11:15 10° NE visible
